| time (UTC) | temp F | wind direction | speed knots | gust knots | rain 1hr in | rain 24hr in | rain mn in | humidity % | barometer mb |
| 20260510023047 | 63 | 351 | 0.0 | 1.7 | 0.00 | 0.00 | 0.00 | 47 | 1013.9 |
| 20260510021547 | 62 | 74 | 0.0 | 2.6 | 0.00 | 0.00 | 0.00 | 46 | 1013.9 |
| 20260510020049 | 62 | 65 | 0.0 | 1.7 | 0.00 | 0.00 | 0.00 | 45 | 1014.0 |
| 20260510014548 | 62 | 73 | 0.0 | 1.7 | 0.00 | 0.00 | 0.00 | 47 | 1014.1 |
| 20260510013043 | 62 | 65 | 0.0 | 0.9 | 0.00 | 0.00 | 0.00 | 47 | 1014.1 |
| 20260510011545 | 62 | 64 | 0.0 | 0.9 | 0.00 | 0.00 | 0.00 | 47 | 1014.2 |
| 20260510010041 | 61 | 337 | 0.0 | 3.5 | 0.00 | 0.00 | 0.00 | 48 | 1014.2 |
| 20260510004540 | 61 | 109 | 0.0 | 0.9 | 0.00 | 0.00 | 0.00 | 52 | 1014.2 |
| 20260510003039 | 61 | 57 | 0.0 | 1.7 | 0.00 | 0.00 | 0.00 | 54 | 1014.3 |
| 20260510001539 | 61 | 34 | 0.0 | 0.9 | 0.00 | 0.00 | 0.00 | 58 | 1014.4 |
| 20260510000056 | 61 | 43 | 0.0 | 1.7 | 0.00 | 0.00 | 0.00 | 58 | 1014.3 |
| 20260509234546 | 62 | 24 | 0.0 | 0.9 | 0.00 | 0.00 | 0.00 | 53 | 1014.5 |
| 20260509233033 | 62 | 23 | 0.0 | 0.9 | 0.00 | 0.00 | 0.00 | 50 | 1014.4 |
| 20260509231530 | 63 | 23 | 0.0 | 0.0 | 0.00 | 0.00 | 0.00 | 50 | 1014.4 |
| 20260509230033 | 63 | 23 | 0.0 | 1.7 | 0.00 | 0.00 | 0.00 | 50 | 1014.4 |
| 20260509224529 | 63 | 349 | 0.0 | 1.7 | 0.00 | 0.00 | 0.00 | 51 | 1014.3 |
| 20260509223028 | 63 | 357 | 0.0 | 1.7 | 0.00 | 0.00 | 0.00 | 52 | 1014.4 |
| 20260509221527 | 64 | 268 | 0.0 | 3.5 | 0.00 | 0.00 | 0.00 | 52 | 1014.5 |
| 20260509220025 | 63 | 322 | 0.0 | 6.1 | 0.00 | 0.00 | 0.00 | 52 | 1014.5 |
| 20260509214529 | 63 | 331 | 0.0 | 2.6 | 0.00 | 0.00 | 0.00 | 55 | 1014.6 |
| 20260509213021 | 62 | 20 | 0.0 | 0.9 | 0.00 | 0.00 | 0.00 | 56 | 1014.6 |
| 20260509211519 | 63 | 18 | 0.0 | 0.0 | 0.00 | 0.00 | 0.00 | 57 | 1014.5 |
| 20260509210016 | 62 | 18 | 0.0 | 0.0 | 0.00 | 0.00 | 0.00 | 57 | 1014.5 |
| 20260509204523 | 63 | 18 | 0.0 | 0.9 | 0.00 | 0.00 | 0.00 | 58 | 1014.5 |
| 20260509203016 | 63 | 338 | 0.0 | 0.9 | 0.00 | 0.00 | 0.00 | 57 | 1014.5 |
| 20260509201516 | 64 | 338 | 0.0 | 1.7 | 0.00 | 0.00 | 0.00 | 55 | 1014.6 |
| 20260509200015 | 64 | 354 | 0.0 | 0.9 | 0.00 | 0.00 | 0.00 | 54 | 1014.6 |
| 20260509194518 | 65 | 359 | 0.0 | 0.9 | 0.00 | 0.00 | 0.00 | 49 | 1014.6 |
| 20260509193014 | 65 | 359 | 0.0 | 0.0 | 0.00 | 0.00 | 0.00 | 47 | 1014.6 |
| 20260509191518 | 65 | 359 | 0.0 | 1.7 | 0.00 | 0.00 | 0.00 | 51 | 1014.8 |
| 20260509190013 | 66 | 44 | 0.0 | 2.6 | 0.00 | 0.00 | 0.00 | 50 | 1014.7 |
| 20260509184515 | 66 | 324 | 0.0 | 0.0 | 0.00 | 0.00 | 0.00 | 45 | 1014.6 |
| 20260509183013 | 67 | 324 | 0.0 | 0.0 | 0.00 | 0.00 | 0.00 | 44 | 1014.6 |
| 20260509181511 | 68 | 323 | 0.0 | 1.7 | 0.00 | 0.00 | 0.00 | 39 | 1014.4 |
| 20260509180014 | 67 | 320 | 0.0 | 1.7 | 0.00 | 0.00 | 0.00 | 39 | 1014.4 |
| 20260509174510 | 67 | 332 | 0.0 | 1.7 | 0.00 | 0.00 | 0.00 | 42 | 1014.3 |
| 20260509173009 | 67 | 341 | 0.0 | 0.9 | 0.00 | 0.00 | 0.00 | 44 | 1014.4 |
| 20260509171509 | 68 | 341 | 0.0 | 1.7 | 0.00 | 0.00 | 0.00 | 46 | 1014.3 |
| 20260509170009 | 68 | 353 | 0.0 | 1.7 | 0.00 | 0.00 | 0.00 | 46 | 1014.2 |
| 20260509164508 | 68 | 43 | 0.0 | 1.7 | 0.00 | 0.00 | 0.00 | 45 | 1014.1 |
| 20260509163007 | 68 | 61 | 0.0 | 0.9 | 0.00 | 0.00 | 0.00 | 49 | 1014.1 |
| 20260509161507 | 68 | 353 | 0.0 | 2.6 | 0.00 | 0.00 | 0.00 | 52 | 1014.0 |
| 20260509160007 | 69 | 13 | 0.0 | 1.7 | 0.00 | 0.00 | 0.00 | 52 | 1014.1 |
| 20260509154508 | 70 | 357 | 0.0 | 3.5 | 0.00 | 0.00 | 0.00 | 49 | 1014.2 |
| 20260509153005 | 72 | 3 | 0.0 | 5.2 | 0.00 | 0.00 | 0.00 | 45 | 1014.0 |
| 20260509151505 | 73 | 303 | 0.9 | 5.2 | 0.00 | 0.00 | 0.00 | 42 | 1014.0 |
| 20260509150003 | 73 | 334 | 0.0 | 5.2 | 0.00 | 0.00 | 0.00 | 39 | 1014.0 |
| 20260509144507 | 73 | 331 | 0.9 | 5.2 | 0.00 | 0.00 | 0.00 | 42 | 1014.0 |
| 20260509143000 | 74 | 275 | 1.7 | 7.8 | 0.00 | 0.00 | 0.00 | 40 | 1014.2 |
| 20260509141600 | 74 | 310 | 0.9 | 7.8 | 0.00 | 0.00 | 0.00 | 39 | 1014.2 |
| 20260509140107 | 75 | 298 | 3.5 | 8.7 | 0.00 | 0.00 | 0.00 | 38 | 1014.0 |
| 20260509134612 | 75 | 332 | 1.7 | 9.6 | 0.00 | 0.00 | 0.00 | 35 | 1014.2 |
| 20260509133056 | 76 | 49 | 0.9 | 6.1 | 0.00 | 0.00 | 0.00 | 36 | 1014.3 |
| 20260509131555 | 75 | 305 | 0.0 | 5.2 | 0.00 | 0.00 | 0.00 | 39 | 1014.3 |
| 20260509130059 | 74 | 346 | 1.7 | 7.8 | 0.00 | 0.00 | 0.00 | 40 | 1014.3 |
| 20260509124551 | 74 | 305 | 2.6 | 7.8 | 0.00 | 0.00 | 0.00 | 41 | 1014.4 |
| 20260509123106 | 74 | 250 | 1.7 | 7.0 | 0.00 | 0.00 | 0.00 | 45 | 1014.4 |
| 20260509121607 | 74 | 351 | 1.7 | 8.7 | 0.00 | 0.00 | 0.00 | 47 | 1014.5 |
| 20260509120046 | 74 | 292 | 1.7 | 7.8 | 0.00 | 0.00 | 0.00 | 47 | 1014.5 |
| 20260509114545 | 73 | 283 | 1.7 | 7.8 | 0.00 | 0.00 | 0.00 | 54 | 1014.7 |
| 20260509113046 | 74 | 299 | 0.9 | 5.2 | 0.00 | 0.00 | 0.00 | 55 | 1014.8 |
| 20260509111557 | 73 | 281 | 0.9 | 8.7 | 0.00 | 0.00 | 0.00 | 56 | 1014.8 |
| 20260509110041 | 73 | 327 | 1.7 | 7.8 | 0.00 | 0.00 | 0.00 | 52 | 1014.9 |
| 20260509104545 | 73 | 259 | 2.6 | 7.8 | 0.00 | 0.00 | 0.00 | 52 | 1014.9 |
| 20260509103048 | 73 | 291 | 2.6 | 6.1 | 0.00 | 0.00 | 0.00 | 57 | 1014.9 |
| 20260509101608 | 73 | 236 | 1.7 | 7.8 | 0.00 | 0.00 | 0.00 | 57 | 1015.0 |
| 20260509100042 | 73 | 283 | 1.7 | 7.8 | 0.00 | 0.00 | 0.00 | 53 | 1015.0 |
| 20260509094539 | 73 | 263 | 0.9 | 6.1 | 0.00 | 0.00 | 0.00 | 54 | 1015.1 |
| 20260509093034 | 73 | 255 | 0.9 | 7.0 | 0.00 | 0.00 | 0.00 | 56 | 1015.2 |
| 20260509091540 | 73 | 315 | 1.7 | 5.2 | 0.00 | 0.00 | 0.00 | 54 | 1015.3 |
| 20260509090038 | 72 | 236 | 1.7 | 5.2 | 0.00 | 0.00 | 0.00 | 53 | 1015.5 |
| 20260509084536 | 73 | 311 | 1.7 | 4.3 | 0.00 | 0.00 | 0.00 | 47 | 1015.5 |
| 20260509083028 | 73 | 330 | 0.9 | 4.3 | 0.00 | 0.00 | 0.00 | 46 | 1015.6 |
| 20260509081529 | 72 | 299 | 0.0 | 3.5 | 0.00 | 0.00 | 0.00 | 46 | 1015.6 |
| 20260509080028 | 72 | 267 | 0.9 | 2.6 | 0.00 | 0.00 | 0.00 | 46 | 1015.6 |
| 20260509074536 | 71 | 300 | 0.0 | 2.6 | 0.00 | 0.00 | 0.00 | 48 | 1015.7 |
| 20260509073023 | 71 | 277 | 0.0 | 3.5 | 0.00 | 0.00 | 0.00 | 48 | 1015.6 |
| 20260509071525 | 71 | 295 | 0.0 | 2.6 | 0.00 | 0.00 | 0.00 | 46 | 1015.5 |
| 20260509070023 | 71 | 288 | 0.9 | 3.5 | 0.00 | 0.00 | 0.00 | 45 | 1015.5 |
| 20260509064522 | 71 | 294 | 0.0 | 1.7 | 0.00 | 0.00 | 0.00 | 45 | 1015.4 |
| 20260509063027 | 71 | 304 | 0.0 | 1.7 | 0.00 | 0.00 | 0.00 | 48 | 1015.4 |
| 20260509061521 | 70 | 320 | 0.0 | 1.7 | 0.00 | 0.00 | 0.00 | 48 | 1015.3 |
| 20260509060020 | 70 | 3 | 0.0 | 0.9 | 0.00 | 0.00 | 0.00 | 47 | 1015.2 |
| 20260509054519 | 70 | 3 | 0.0 | 0.0 | 0.00 | 0.00 | 0.00 | 46 | 1015.2 |
| 20260509053021 | 71 | 83 | 0.0 | 0.0 | 0.00 | 0.00 | 0.00 | 44 | 1015.1 |
| 20260509051514 | 70 | 83 | 0.0 | 0.9 | 0.00 | 0.00 | 0.00 | 49 | 1015.1 |
| 20260509050012 | 67 | 83 | 0.0 | 0.0 | 0.00 | 0.00 | 0.00 | 52 | 1015.1 |
| 20260509044507 | 66 | 83 | 0.0 | 0.0 | 0.00 | 0.00 | 0.00 | 53 | 1015.1 |
| 20260509043004 | 64 | 83 | 0.0 | 0.0 | 0.00 | 0.00 | 0.00 | 58 | 1015.2 |
| 20260509041503 | 64 | 83 | 0.0 | 1.7 | 0.00 | 0.00 | 0.00 | 58 | 1015.3 |
| 20260509040001 | 62 | 78 | 0.0 | 0.0 | 0.00 | 0.00 | 0.00 | 57 | 1015.2 |
| 20260509034501 | 62 | 78 | 0.0 | 0.9 | 0.00 | 0.00 | 0.00 | 55 | 1015.0 |
| 20260509033159 | 62 | 78 | 0.0 | 1.7 | 0.00 | 0.00 | 0.00 | 55 | 1014.9 |
| 20260509031557 | 62 | 59 | 0.0 | 0.9 | 0.00 | 0.00 | 0.00 | 52 | 1014.9 |
| 20260509030056 | 62 | 57 | 0.0 | 0.0 | 0.00 | 0.00 | 0.00 | 51 | 1014.8 |
| 20260509024559 | 64 | 57 | 0.0 | 0.0 | 0.00 | 0.00 | 0.00 | 50 | 1014.8 |